This is the latest recevied weather packets stored in our database for station/object N3WXO-1. If no packets are shown the sender has not sent any weather packets the latest 10 day(s).
| Time | Temp. | Humidity | Pressure | Rain* | Wind** | Luminosity | Snow |
|---|---|---|---|---|---|---|---|
| 1778023533 | 25.56° C | 42% | 1007.6 hPa | 0 mm | - | 14 W/m² | - |
| 1778023223 | 25.56° C | 41% | 1007.6 hPa | 0 mm | - | 12 W/m² | - |
| 1778022930 | 25.56° C | 41% | 1007.5 hPa | 0 mm | - | 12 W/m² | - |
| 1778022619 | 25.56° C | 42% | 1007.6 hPa | 0 mm | - | 9 W/m² | - |
| 1778022331 | 25.56° C | 42% | 1007.7 hPa | 0 mm | - | 7 W/m² | - |
| 1778022026 | 25.56° C | 41% | 1007.5 hPa | 0 mm | - | 9 W/m² | - |
| 1778021718 | 25.56° C | 42% | 1007.5 hPa | 0 mm | - | 7 W/m² | - |
| 1778021417 | 25.56° C | 41% | 1007.5 hPa | 0 mm | - | 5 W/m² | - |
| 1778021132 | 26.11° C | 41% | 1007.4 hPa | 0 mm | - | 9 W/m² | - |
| 1778020823 | 26.11° C | 39% | 1007.3 hPa | 0 mm | - | 19 W/m² | - |
| 1778020518 | 26.11° C | 38% | 1007.2 hPa | 0 mm | - | 25 W/m² | - |
| 1778020235 | 26.11° C | 38% | 1007.2 hPa | 0 mm | - | 37 W/m² | - |
| 1778019923 | 26.11° C | 38% | 1007.4 hPa | 0 mm | - | 60 W/m² | - |
| 1778019619 | 26.11° C | 37% | 1007.3 hPa | 0 mm | - | 60 W/m² | - |
| 1778019313 | 26.11° C | 37% | 1007.3 hPa | 0 mm | - | 44 W/m² | - |
| 1778019028 | 26.11° C | 37% | 1007.1 hPa | 0 mm | - | 44 W/m² | - |
| 1778018720 | 26.11° C | 38% | 1007.1 hPa | 0 mm | - | 58 W/m² | - |
| 1778018429 | 26.11° C | 37% | 1007 hPa | 0 mm | - | 72 W/m² | - |
| 1778018121 | 26.11° C | 38% | 1006.9 hPa | 0 mm | - | 77 W/m² | - |
| 1778017830 | 26.11° C | 39% | 1007 hPa | 0 mm | - | 58 W/m² | - |
| 1778017522 | 26.11° C | 41% | 1007 hPa | 0 mm | - | 53 W/m² | - |
| 1778017232 | 26.11° C | 40% | 1007 hPa | 0 mm | - | 46 W/m² | - |
| 1778016628 | 26.11° C | 42% | 1007.1 hPa | 0 mm | - | 62 W/m² | - |
| 1778016321 | 26.11° C | 41% | 1007.2 hPa | 0 mm | - | 72 W/m² | - |
| 1778016029 | 26.11° C | 42% | 1007.1 hPa | 0 mm | - | 70 W/m² | - |
* Rain latest hour (hover to see other rain measurements)
** Current wind speed in m/s (hover to see current wind gust speed)